When you browse on this site, cookies collect data to enhance your experience and personalize the content and advertising you see.
Visit our Privacy Policy to learn more. By continuing to use the site, you agree to this use of cookies and data.
  • In Lithuania
  • List of Countries
  • For 7 days
  • Water Temperature
  • Weather Map
  • Weather Widgets
  • user-avatar
    Login

    Hourly Weather Nakhchivan

    Today, 20 October, Sunday

    Time Temperature Precipitation Wind Pressure Humidity
    00:00 +21°C° 0 mm 1 mps 690 mmHg 42%
    01:00 +20°C° 0 mm 1 mps 690 mmHg 46%
    02:00 +19°C° 0 mm 1 mps 690 mmHg 49%
    03:00 +19°C° 0 mm 1 mps 689 mmHg 51%
    04:00 +18°C° 0 mm 1 mps 689 mmHg 54%
    05:00 +18°C° 0 mm 1 mps 690 mmHg 56%
    06:00 +16°C° 0 mm 1 mps 690 mmHg 58%
    07:00 +19°C° 0.1 mm 1 mps 690 mmHg 54%
    08:00 +20°C° 0.1 mm 1 mps 690 mmHg 50%
    09:00 +22°C° 0 mm 1 mps 691 mmHg 45%
    10:00 +23°C° 0 mm 1 mps 691 mmHg 42%
    11:00 +24°C° 0 mm 1 mps 691 mmHg 38%
    12:00 +25°C° 0 mm 1 mps 691 mmHg 35%
    13:00 +26°C° 0 mm 1 mps 691 mmHg 33%
    14:00 +26°C° 0 mm 1 mps 690 mmHg 31%
    15:00 +27°C° 0 mm 2 mps 690 mmHg 30%
    16:00 +25°C° 0 mm 2 mps 690 mmHg 33%
    17:00 +24°C° 0 mm 2 mps 690 mmHg 36%
    18:00 +22°C° 0 mm 3 mps 690 mmHg 39%
    19:00 +21°C° 0.1 mm 3 mps 690 mmHg 43%
    20:00 +20°C° 0.1 mm 2 mps 690 mmHg 46%
    21:00 +19°C° 0.1 mm 2 mps 690 mmHg 49%
    22:00 +19°C° 0.1 mm 2 mps 690 mmHg 52%
    23:00 +18°C° 0.1 mm 3 mps 691 mmHg 56%

    Tomorrow, 21 October, Monday

    Time Temperature Precipitation Wind Pressure Humidity
    00:00 +18°C° 0.1 mm 3 mps 691 mmHg 59%
    01:00 +17°C° 0 mm 2 mps 691 mmHg 58%
    02:00 +17°C° 0 mm 2 mps 691 mmHg 58%
    03:00 +17°C° 0 mm 2 mps 691 mmHg 58%
    04:00 +16°C° 0 mm 2 mps 691 mmHg 57%
    05:00 +16°C° 0 mm 1 mps 691 mmHg 56%
    06:00 +15°C° 0 mm 1 mps 691 mmHg 55%
    07:00 +16°C° 0 mm 1 mps 691 mmHg 50%
    08:00 +18°C° 0 mm 1 mps 691 mmHg 46%
    09:00 +18°C° 0 mm 2 mps 691 mmHg 41%
    10:00 +19°C° 0 mm 2 mps 691 mmHg 38%
    11:00 +20°C° 0 mm 2 mps 691 mmHg 35%
    12:00 +21°C° 0 mm 2 mps 691 mmHg 32%
    13:00 +23°C° 0 mm 2 mps 691 mmHg 32%
    14:00 +23°C° 0 mm 2 mps 691 mmHg 31%
    15:00 +24°C° 0 mm 3 mps 690 mmHg 30%
    16:00 +23°C° 0 mm 2 mps 690 mmHg 32%
    17:00 +21°C° 0 mm 2 mps 691 mmHg 33%
    18:00 +20°C° 0 mm 2 mps 691 mmHg 34%
    19:00 +19°C° 0 mm 2 mps 690 mmHg 35%
    20:00 +19°C° 0 mm 2 mps 690 mmHg 36%
    21:00 +18°C° 0 mm 2 mps 690 mmHg 36%
    22:00 +17°C° 0 mm 2 mps 690 mmHg 39%
    23:00 +17°C° 0 mm 2 mps 690 mmHg 41%

    Day after tomorrow, 22 October, Tuesday

    Time Temperature Precipitation Wind Pressure Humidity
    00:00 +16°C° 0 mm 2 mps 690 mmHg 43%
    01:00 +16°C° 0 mm 2 mps 690 mmHg 45%
    02:00 +15°C° 0 mm 1 mps 689 mmHg 47%
    03:00 +15°C° 0 mm 1 mps 689 mmHg 49%
    04:00 +15°C° 0 mm 1 mps 689 mmHg 50%
    05:00 +14°C° 0 mm 1 mps 689 mmHg 51%
    06:00 +14°C° 0 mm 1 mps 689 mmHg 52%
    07:00 +15°C° 0 mm 1 mps 690 mmHg 48%
    08:00 +16°C° 0 mm 1 mps 690 mmHg 44%
    09:00 +18°C° 0 mm 1 mps 690 mmHg 40%
    10:00 +20°C° 0 mm 1 mps 690 mmHg 37%
    11:00 +21°C° 0 mm 1 mps 690 mmHg 34%
    12:00 +22°C° 0 mm 1 mps 690 mmHg 31%
    13:00 +22°C° 0 mm 1 mps 690 mmHg 30%
    14:00 +23°C° 0 mm 1 mps 690 mmHg 30%
    15:00 +23°C° 0 mm 2 mps 689 mmHg 29%
    16:00 +23°C° 0 mm 2 mps 689 mmHg 32%
    17:00 +21°C° 0 mm 2 mps 689 mmHg 34%
    18:00 +20°C° 0 mm 2 mps 689 mmHg 36%
    19:00 +19°C° 0 mm 2 mps 689 mmHg 39%
    20:00 +18°C° 0 mm 2 mps 689 mmHg 41%
    21:00 +17°C° 0 mm 2 mps 689 mmHg 43%
    22:00 +17°C° 0 mm 2 mps 689 mmHg 46%
    23:00 +16°C° 0 mm 2 mps 689 mmHg 49%

    23 October, Wednesday

    Time Temperature Precipitation Wind Pressure Humidity
    00:00 +16°C° 0 mm 2 mps 689 mmHg 52%
    01:00 +15°C° 0 mm 1 mps 689 mmHg 54%
    02:00 +15°C° 0 mm 1 mps 688 mmHg 56%
    03:00 +14°C° 0 mm 1 mps 688 mmHg 59%
    04:00 +14°C° 0 mm 1 mps 688 mmHg 61%
    05:00 +13°C° 0 mm 1 mps 688 mmHg 62%
    06:00 +13°C° 0 mm 1 mps 688 mmHg 64%
    07:00 +14°C° 0 mm 1 mps 689 mmHg 60%
    08:00 +15°C° 0 mm 1 mps 689 mmHg 56%
    09:00 +17°C° 0 mm 2 mps 690 mmHg 51%
    10:00 +18°C° 0 mm 2 mps 690 mmHg 48%
    11:00 +19°C° 0 mm 2 mps 690 mmHg 44%
    12:00 +20°C° 0 mm 2 mps 690 mmHg 40%
    13:00 +21°C° 0 mm 2 mps 689 mmHg 39%
    14:00 +21°C° 0 mm 3 mps 689 mmHg 38%
    15:00 +22°C° 0 mm 3 mps 689 mmHg 37%
    16:00 +21°C° 0 mm 3 mps 689 mmHg 39%
    17:00 +20°C° 0 mm 2 mps 689 mmHg 42%
    18:00 +19°C° 0 mm 2 mps 689 mmHg 45%
    19:00 +19°C° 0 mm 2 mps 690 mmHg 47%
    20:00 +18°C° 0 mm 2 mps 690 mmHg 49%
    21:00 +18°C° 0 mm 2 mps 690 mmHg 51%
    22:00 +17°C° 0 mm 2 mps 690 mmHg 54%
    23:00 +17°C° 0 mm 2 mps 690 mmHg 56%

    24 October, Thursday

    Time Temperature Precipitation Wind Pressure Humidity
    00:00 +16°C° 0 mm 2 mps 689 mmHg 59%
    01:00 +15°C° 0 mm 2 mps 689 mmHg 62%
    02:00 +15°C° 0 mm 2 mps 689 mmHg 64%
    03:00 +14°C° 0 mm 1 mps 689 mmHg 67%
    04:00 +14°C° 0 mm 1 mps 689 mmHg 68%
    05:00 +13°C° 0 mm 1 mps 689 mmHg 70%
    06:00 +13°C° 0 mm 1 mps 689 mmHg 71%
    07:00 +14°C° 0 mm 1 mps 689 mmHg 67%
    08:00 +15°C° 0 mm 1 mps 690 mmHg 62%
    09:00 +16°C° 0 mm 1 mps 690 mmHg 57%
    10:00 +19°C° 0 mm 1 mps 690 mmHg 52%
    11:00 +20°C° 0 mm 1 mps 690 mmHg 48%
    12:00 +21°C° 0 mm 1 mps 689 mmHg 44%
    13:00 +21°C° 0 mm 2 mps 689 mmHg 42%
    14:00 +23°C° 0 mm 2 mps 689 mmHg 40%
    15:00 +23°C° 0 mm 2 mps 689 mmHg 38%
    16:00 +23°C° 0.2 mm 2 mps 689 mmHg 41%
    17:00 +22°C° 0.2 mm 1 mps 689 mmHg 45%
    18:00 +21°C° 0.2 mm 1 mps 689 mmHg 48%
    19:00 +19°C° 0.2 mm 2 mps 689 mmHg 52%
    20:00 +19°C° 0.2 mm 2 mps 689 mmHg 56%
    21:00 +18°C° 0.2 mm 2 mps 689 mmHg 60%
    22:00 +17°C° 0.3 mm 2 mps 689 mmHg 62%
    23:00 +18°C° 0.3 mm 1 mps 689 mmHg 65%

    25 October, Friday

    Time Temperature Precipitation Wind Pressure Humidity
    00:00 +16°C° 0.3 mm 1 mps 689 mmHg 68%
    01:00 +16°C° 0.1 mm 1 mps 688 mmHg 69%
    02:00 +14°C° 0.1 mm 0 mps 688 mmHg 71%
    03:00 +14°C° 0.1 mm 0 mps 688 mmHg 72%
    04:00 +14°C° 0 mm 0 mps 688 mmHg 73%
    05:00 +13°C° 0 mm 0 mps 688 mmHg 74%
    06:00 +13°C° 0 mm 0 mps 688 mmHg 74%
    07:00 +14°C° 0 mm 0 mps 688 mmHg 70%
    08:00 +16°C° 0 mm 1 mps 688 mmHg 65%
    09:00 +18°C° 0 mm 1 mps 688 mmHg 61%
    10:00 +19°C° 0 mm 1 mps 688 mmHg 56%
    11:00 +20°C° 0 mm 1 mps 688 mmHg 52%
    12:00 +21°C° 0 mm 1 mps 688 mmHg 47%
    13:00 +22°C° 0 mm 1 mps 688 mmHg 45%
    14:00 +22°C° 0 mm 1 mps 688 mmHg 43%
    15:00 +23°C° 0 mm 2 mps 688 mmHg 41%
    16:00 +21°C° 0.1 mm 2 mps 688 mmHg 44%
    17:00 +20°C° 0.1 mm 3 mps 688 mmHg 48%
    18:00 +20°C° 0.1 mm 3 mps 688 mmHg 51%
    19:00 +19°C° 0.3 mm 3 mps 688 mmHg 56%
    20:00 +18°C° 0.3 mm 3 mps 688 mmHg 61%
    21:00 +18°C° 0.3 mm 4 mps 688 mmHg 66%
    22:00 +17°C° 0.3 mm 3 mps 688 mmHg 68%
    23:00 +17°C° 0.3 mm 3 mps 687 mmHg 69%
    Show more